C/2015 D3 ( PanSTARRS )

Japanese version
Home page
Updated on January 17, 2017

---------------------------------------------------------------------

* Profile

Discovery Date February 19, 2015
Magnitude 20.4 mag
Discoverer Pan-STARRS 1 telescope (Haleakala)

* Pictures

* Orbital Elements

Epoch 2016 May 12.0 TT = JDT 2457520.5
T 2016 Apr. 30.73701 TT                                 MPCW
q   8.1488488            (2000.0)            P               Q
z  -0.0003082      Peri.    2.84677     -0.90714313     +0.28889156
 +/-0.0000017      Node   156.98045     +0.36898800     +0.19642906
e   1.0025112      Incl.  128.50944     +0.20233436     +0.93699375
From 149 observations 2015 Feb. 17-2016 Oct. 21, mean residual 0".5.

* Magnitudes Graph

        m1 = 5.5 + 5 log d + 10.0 log r

---------------------------------------------------------------------

The orbital elements are published on M.P.E.C. 2016-U66.
The magnitudes graphs are made with Comet for Windows.

---------------------------------------------------------------------

Copyright(C) Seiichi Yoshida (comet@aerith.net). All rights reserved.